GEFSCGP_500_meanwind_228.txt.gz
Wind_Speed
35 35 34 33 34 34 34 34 34 34 35 36 36 34 31 31 32 31 31 31 32 32 33 33 32 31 31 32 32 33 33 34 35 35 36 37 37 37 37 37 37 38 38 39
35 35 33 34 34 34 34 34 33 34 35 35 36 35 33 31 31 31 30 31 31 31 32 32 32 31 31 32 32 32 33 34 34 35 35 35 35 35 35 36 37 38 39 39
36 34 34 34 34 35 35 35 34 33 34 36 37 36 34 33 32 31 30 29 29 29 30 30 31 31 32 32 32 33 33 33 34 35 34 34 35 34 35 36 35 37 38 38
35 34 35 35 35 35 36 34 34 34 35 36 36 37 34 33 32 31 30 29 28 29 29 30 30 31 31 32 33 32 31 32 33 34 34 33 33 34 35 35 36 36 36 37
35 34 35 35 34 35 35 34 35 35 35 36 35 37 35 34 33 31 30 30 29 29 30 31 30 30 31 31 32 32 31 32 32 33 33 34 32 33 33 34 36 36 36 37
34 35 35 34 33 34 34 35 36 36 37 38 35 36 35 34 32 31 31 30 29 29 30 31 30 30 31 31 31 32 31 31 31 32 32 33 32 32 32 34 35 36 36 36
34 34 34 34 34 33 33 34 35 37 38 39 36 37 35 34 33 32 31 30 30 29 29 29 30 30 31 31 32 32 31 31 31 32 32 32 32 31 31 33 34 35 34 34
34 34 33 34 34 34 33 33 34 36 37 37 36 37 35 33 33 33 32 31 31 30 29 29 29 30 30 30 31 32 31 30 31 32 32 32 32 32 31 32 33 34 35 33
33 33 33 33 32 32 32 33 32 34 35 36 36 36 35 33 33 33 32 31 30 30 29 29 29 30 29 29 30 31 30 30 30 31 31 31 31 31 31 31 31 32 34 34
32 32 31 32 32 32 33 32 31 32 33 35 36 35 33 32 32 32 31 30 29 29 28 28 28 28 28 29 29 29 28 28 28 29 29 29 30 30 30 30 30 30 32 34
32 32 32 32 33 33 33 34 34 34 34 35 36 35 32 31 31 31 30 30 29 29 28 28 28 28 28 28 28 28 28 28 29 29 29 29 29 29 30 30 30 30 31 32
32 34 33 33 33 34 35 35 35 35 35 35 35 34 32 31 31 31 30 29 29 28 28 28 29 29 29 28 28 28 28 29 29 29 29 30 30 29 30 30 31 31 31 32
32 33 33 33 33 33 34 35 35 35 34 33 32 32 31 30 31 30 29 29 29 29 29 29 29 29 29 29 29 29 29 29 29 29 30 30 29 29 30 31 32 32 32 33
30 31 33 33 32 32 33 34 34 35 35 35 33 31 31 31 30 30 29 30 30 30 30 29 29 29 29 29 29 29 29 29 29 30 30 30 30 30 30 31 31 32 33 33
31 31 31 32 32 33 33 33 34 34 34 34 32 32 31 31 31 31 30 30 30 30 29 29 28 28 28 28 28 28 28 29 29 30 31 32 31 31 31 32 32 32 33 34
32 33 32 30 31 33 33 31 33 33 33 33 33 33 32 32 32 32 32 31 30 30 30 29 28 28 28 28 28 28 28 28 29 30 30 30 32 32 32 32 33 33 34 35
30 31 32 31 30 32 33 31 31 32 32 32 32 32 31 32 32 32 31 31 30 30 30 30 29 29 29 29 29 29 28 29 29 29 30 30 31 32 33 33 34 34 35 35
27 29 30 30 30 31 30 31 31 31 31 31 31 31 31 30 32 33 34 32 31 30 30 30 30 29 29 29 29 29 29 29 29 29 30 31 32 32 33 34 35 35 35 36
25 26 27 27 27 28 28 30 31 31 31 30 30 30 31 31 32 33 33 33 33 32 30 31 30 30 30 30 30 30 30 30 30 30 31 31 32 32 33 34 34 35 36 37
24 23 24 25 25 25 25 27 29 31 31 30 30 30 31 31 32 32 33 33 34 33 32 31 31 31 31 31 31 31 31 31 31 31 31 31 32 33 34 34 35 36 37 38
21 22 22 23 23 23 22 23 25 28 29 30 31 31 31 31 31 31 31 32 33 33 33 32 32 32 32 32 31 31 31 31 31 32 32 32 32 33 34 35 35 36 37 37
18 20 21 21 22 22 22 23 25 26 27 30 31 31 31 31 30 31 31 32 32 33 34 34 33 33 33 33 32 32 32 32 32 32 32 33 33 34 34 35 35 35 36 36
17 18 20 22 22 22 22 23 25 26 26 27 28 29 29 29 30 30 31 31 32 33 33 33 33 33 33 33 33 33 32 32 33 33 33 33 34 34 34 34 35 35 35 35
17 17 19 20 21 22 24 25 25 25 25 26 27 28 28 29 29 29 30 31 32 32 33 33 33 33 32 32 32 33 33 33 33 34 34 34 34 34 34 34 34 34 34 35
18 18 18 19 21 21 22 24 25 26 26 27 27 27 28 28 29 29 29 30 31 31 32 33 34 34 34 33 33 33 33 33 33 34 34 34 34 34 34 34 35 35 35 35
19 19 19 19 20 21 21 23 24 24 25 26 27 27 27 28 29 29 30 30 30 31 31 32 32 33 33 33 33 33 33 33 33 34 34 34 34 34 34 34 34 35 36 36

GEFSCGP_500_meanwind_234.txt.gz
Wind_Speed
40 41 40 39 39 40 40 40 39 38 39 41 41 40 39 40 39 38 38 38 37 36 35 36 35 36 35 34 35 34 34 34 34 35 35 35 35 36 36 35 35 36 36 37
42 42 40 40 40 40 40 40 39 39 39 41 41 40 39 40 40 39 38 38 38 37 36 35 35 35 35 34 34 35 34 34 34 35 36 36 36 36 36 37 36 36 37 38
42 41 40 40 40 40 40 40 39 40 40 41 41 41 38 38 39 39 39 38 38 37 36 36 35 35 34 34 34 35 35 35 35 35 35 36 37 37 37 38 38 37 38 38
41 40 40 40 40 41 40 39 40 40 40 40 41 42 38 38 38 38 38 38 37 37 36 35 35 35 35 35 35 36 35 36 36 36 35 35 36 37 38 38 38 38 38 38
39 39 40 40 40 40 40 39 40 41 41 41 41 43 40 37 37 37 37 37 38 38 37 36 36 35 35 35 36 36 36 36 36 36 36 36 36 36 37 37 38 38 38 39
38 38 39 39 39 40 39 40 40 40 41 43 40 42 41 38 36 36 37 37 37 38 38 37 36 35 35 36 36 36 37 37 37 37 36 36 36 36 37 37 37 37 38 39
37 37 38 38 38 38 38 38 39 41 42 43 40 41 41 38 37 36 36 36 36 37 38 37 36 36 36 36 36 36 36 36 36 36 36 36 36 37 37 37 37 37 37 38
36 36 35 36 37 37 37 37 38 40 41 41 41 41 39 37 36 36 36 36 35 35 36 37 36 36 37 37 37 37 36 36 36 36 36 36 36 37 37 38 37 37 38 38
33 34 33 33 34 35 36 36 36 38 40 40 40 40 38 37 36 35 35 35 35 35 35 36 36 36 36 36 36 36 37 36 36 36 36 36 37 37 37 38 38 38 38 38
32 32 31 31 32 33 34 34 35 36 37 38 38 37 36 35 35 34 34 35 34 34 34 34 35 35 34 34 35 35 35 35 36 36 37 37 38 38 38 38 38 36 36 37
30 31 30 31 32 32 33 32 33 35 37 38 37 36 35 34 34 34 34 33 34 34 35 35 35 34 34 34 34 34 34 35 35 35 36 36 37 37 37 36 36 36 34 35
30 32 30 29 30 31 32 32 33 34 36 38 38 35 33 32 33 33 33 33 33 34 34 34 34 33 33 33 33 33 34 34 35 35 35 36 36 36 36 35 35 35 34 34
30 32 31 30 30 31 32 32 33 34 35 36 36 34 33 32 33 33 33 32 32 33 33 32 33 33 33 33 33 33 33 33 34 34 34 35 35 34 34 33 34 34 33 33
31 32 32 31 31 31 32 32 33 33 34 34 34 34 32 32 33 33 33 33 33 32 33 32 32 33 34 34 33 33 33 33 32 32 31 32 32 32 31 32 33 32 33 34
31 32 32 33 32 32 32 32 33 34 34 34 34 34 33 33 33 32 33 33 34 34 34 34 33 33 34 34 34 33 33 33 32 32 31 31 31 32 31 32 33 33 34 34
29 30 30 31 31 32 32 31 32 34 34 34 34 33 33 33 33 33 33 33 33 33 33 33 34 34 33 33 33 33 33 33 32 32 32 31 31 32 33 33 33 34 35 35
27 27 28 28 28 30 31 30 30 32 33 33 33 32 33 33 33 33 32 31 32 32 32 33 33 33 33 32 33 32 32 33 33 32 32 32 32 32 34 34 33 33 34 35
25 25 25 25 26 27 27 27 28 30 31 32 33 33 34 33 33 32 32 31 32 32 32 33 33 32 33 33 33 33 32 32 32 32 32 32 32 33 34 34 34 34 34 35
22 21 21 21 22 23 22 23 24 26 28 29 31 32 33 32 32 33 33 33 32 32 32 32 32 32 33 33 33 33 33 32 32 32 33 33 33 33 34 35 35 35 35 35
19 19 19 19 20 21 21 20 21 23 24 26 27 28 30 30 30 30 32 33 33 33 33 32 32 32 32 32 32 32 33 33 33 33 33 33 33 33 34 35 36 36 36 36
17 18 18 18 20 20 19 19 20 21 21 23 25 27 28 28 29 29 29 30 31 32 32 32 32 32 33 33 33 32 32 32 32 32 33 33 33 32 33 33 34 35 36 37
17 18 17 17 18 17 17 18 19 19 19 20 22 24 26 27 27 28 29 29 30 31 31 32 32 32 33 33 33 33 33 32 32 32 32 32 33 33 32 32 33 34 34 35
19 19 18 18 19 17 17 18 18 18 18 19 21 22 24 25 26 26 27 28 29 30 30 31 31 31 31 32 32 32 33 32 31 31 31 32 32 32 32 33 33 34 34 34
20 20 20 20 20 19 18 17 18 18 18 19 20 21 22 24 24 25 26 27 28 29 29 29 29 30 30 30 31 32 32 32 31 32 32 32 32 32 33 33 33 33 34 33
19 20 21 21 20 19 19 18 19 19 19 20 20 21 22 23 24 25 25 26 27 27 28 28 29 29 29 29 30 31 32 33 33 33 33 33 32 32 32 33 33 34 34 34
18 20 21 21 19 19 18 19 19 19 19 20 21 22 23 24 24 25 25 26 26 26 27 28 28 29 29 29 30 31 31 32 32 33 33 33 33 33 34 34 34 34 35 35

GEFSCGP_500_meanwind_240.txt.gz
Wind_Speed
40 41 41 41 42 42 42 42 42 41 42 43 43 42 41 41 42 42 42 42 43 43 43 42 41 41 40 39 38 38 37 37 37 37 38 38 38 38 39 38 37 38 38 38
42 42 41 42 43 44 44 43 43 43 44 44 44 44 42 42 42 42 42 43 43 43 44 43 42 41 40 39 39 38 38 38 37 37 38 38 38 38 38 37 37 38 38 39
42 41 41 42 43 44 44 44 44 44 44 45 45 44 42 42 42 42 42 42 43 43 44 44 42 41 40 40 39 39 38 38 38 38 38 38 38 38 38 37 37 37 38 38
40 40 40 41 42 43 43 43 43 44 44 44 44 44 42 41 41 41 40 40 42 43 44 44 43 42 41 40 40 40 39 38 38 37 38 38 38 38 37 37 37 37 37 38
38 38 39 39 40 41 42 41 42 42 43 44 43 44 42 41 40 39 39 39 40 41 41 42 43 42 41 40 40 40 39 38 37 37 38 38 38 38 38 38 38 37 37 37
37 37 37 37 38 39 40 40 40 41 42 43 41 42 42 40 39 38 38 38 38 39 40 40 41 42 41 40 40 40 39 38 38 38 38 38 38 38 38 37 38 37 37 37
34 34 35 35 35 37 37 37 38 39 40 42 40 42 42 39 38 38 38 38 38 37 38 40 40 41 41 41 41 40 40 39 39 38 38 38 38 38 38 37 38 38 38 37
30 31 33 34 34 34 34 35 36 37 38 39 39 40 39 38 37 37 37 37 37 37 37 38 39 40 41 41 41 41 40 40 39 39 39 39 39 39 38 38 38 39 39 38
28 27 29 31 32 33 33 33 33 35 36 37 38 38 37 36 36 37 37 37 36 37 36 37 38 38 39 40 41 41 40 40 40 40 40 39 39 40 39 39 39 39 39 39
26 27 27 28 31 32 33 32 32 33 33 34 35 36 36 35 35 35 36 36 36 36 37 37 37 37 38 39 40 40 40 41 41 41 41 40 40 40 40 40 39 39 39 39
26 27 27 27 29 31 32 32 33 33 34 34 34 34 34 34 34 33 33 34 36 36 36 37 37 37 38 38 39 40 40 40 41 40 41 41 41 41 41 40 40 40 40 40
24 26 27 27 28 30 31 32 33 33 34 34 35 34 32 32 33 33 33 34 35 36 36 37 37 37 38 37 38 39 39 40 40 39 40 41 41 41 41 40 39 40 40 39
23 24 25 26 27 29 31 31 32 32 34 34 35 34 32 32 32 33 33 33 33 34 35 36 38 37 37 37 37 38 38 38 39 39 39 39 39 39 39 39 39 38 39 39
23 24 25 25 26 28 29 30 31 32 33 34 34 33 33 32 32 32 33 33 32 33 33 34 36 36 36 36 37 38 38 39 39 39 39 39 39 39 39 39 39 38 39 39
22 23 23 24 25 27 28 29 29 31 32 33 33 33 32 32 32 31 32 32 32 32 33 33 34 36 36 37 37 38 38 39 38 38 38 39 39 39 39 38 38 38 38 38
21 21 21 22 23 25 27 27 28 28 30 32 32 32 32 33 31 30 31 32 32 32 32 32 32 34 35 36 36 37 37 37 37 37 37 37 37 37 37 37 37 37 37 37
21 20 20 20 21 23 23 23 24 25 25 27 28 29 29 29 29 29 30 31 31 32 31 31 32 33 34 34 34 35 36 35 36 36 37 36 36 36 37 36 36 36 36 36
19 19 19 19 19 20 19 20 22 23 23 23 24 25 27 28 28 28 29 29 30 31 31 31 31 31 32 33 34 34 35 35 35 36 36 37 36 36 37 36 36 36 36 36
15 16 17 17 18 19 18 18 19 20 21 21 22 23 24 25 27 28 28 29 29 29 31 31 31 31 31 32 32 32 32 33 35 35 35 36 36 36 36 36 36 36 36 36
14 15 17 17 18 18 18 17 18 19 20 20 20 21 22 23 25 26 27 28 28 29 31 32 32 32 32 32 32 32 33 33 33 34 34 35 36 36 36 36 36 36 36 36
14 16 17 18 18 17 17 17 18 19 19 19 20 20 21 22 23 25 26 27 27 28 30 30 31 31 32 33 33 32 33 33 33 33 34 34 34 35 36 36 35 35 35 36
15 15 16 17 18 17 16 17 18 18 18 17 18 19 20 21 22 23 25 26 26 27 28 28 29 29 30 32 32 32 32 32 33 33 33 32 32 33 35 35 35 35 35 35
14 14 15 15 15 14 15 15 16 16 17 17 18 18 19 20 21 22 24 25 27 28 27 27 28 29 29 30 30 31 31 31 31 32 32 33 33 33 34 34 34 34 34 35
13 14 15 15 14 13 13 14 15 16 17 18 18 18 19 19 20 22 23 24 25 27 28 28 27 27 28 29 29 29 30 30 30 31 31 32 32 33 33 32 32 32 33 33
13 15 15 15 14 14 14 15 15 16 17 17 17 17 18 18 19 20 21 22 23 24 26 27 26 26 26 27 27 28 29 29 29 29 30 31 32 32 32 32 32 32 32 31
12 14 15 15 15 15 15 15 15 16 16 16 17 17 17 18 19 20 20 21 22 24 25 25 26 26 26 26 26 26 27 27 28 29 29 30 30 30 31 30 30 30 30 30

GEFSCGP_500_meanwind_246.txt.gz
Wind_Speed
41 41 41 40 40 41 42 43 43 43 43 44 44 43 42 42 43 43 43 43 43 42 41 42 42 42 42 43 43 42 42 42 41 41 41 40 40 40 39 39 39 38 38 38
41 42 40 40 41 41 42 43 43 42 43 44 44 44 43 42 42 43 43 42 42 42 42 43 43 43 43 43 43 43 42 42 42 42 42 41 41 41 40 40 39 39 38 38
40 40 39 40 41 41 42 42 42 42 43 44 44 44 42 42 42 42 42 42 42 42 43 43 44 43 43 44 44 44 43 42 42 42 42 42 42 41 40 40 40 39 39 38
38 38 38 39 40 41 41 41 41 42 42 43 44 45 42 42 42 42 42 42 42 42 43 43 43 43 44 44 44 44 44 43 43 43 42 42 42 41 41 41 40 40 39 38
35 36 37 38 37 38 40 39 40 41 42 42 42 45 44 43 43 42 42 43 42 42 43 44 44 44 44 44 44 44 45 44 43 43 42 42 42 42 42 42 41 40 39 38
33 33 34 36 36 37 37 38 38 40 41 42 41 43 44 43 42 42 43 43 42 42 42 43 44 44 44 45 45 44 45 45 44 43 43 42 42 42 42 42 42 41 40 38
31 31 32 32 34 35 35 36 36 37 39 41 39 41 43 42 42 42 42 42 43 43 43 43 43 43 43 43 44 44 45 45 44 44 44 43 43 43 42 42 41 41 40 40
29 29 29 29 30 32 33 33 33 33 35 37 37 39 39 39 40 41 41 42 42 42 42 43 43 43 43 43 44 44 44 45 44 44 44 44 42 42 41 41 41 41 40 40
28 28 27 28 28 29 31 32 32 32 31 33 34 36 37 38 39 40 41 42 42 42 42 42 43 43 42 43 44 44 44 44 44 44 45 44 43 41 41 41 41 41 40 40
28 27 25 26 27 28 29 30 30 31 31 30 31 33 35 36 37 39 41 42 42 42 42 42 42 42 42 43 43 43 43 43 43 44 44 44 44 41 41 42 41 41 41 40
26 26 25 25 25 25 27 29 31 31 31 31 31 32 33 35 36 38 40 41 42 41 42 41 40 41 41 42 42 42 42 42 43 43 43 43 43 42 41 41 42 42 41 40
24 25 25 25 26 24 26 28 30 31 31 31 32 33 32 34 35 36 37 38 39 40 40 40 40 40 41 42 42 41 41 42 43 43 43 43 43 42 41 41 42 42 42 41
22 23 24 24 25 26 26 27 29 30 31 31 31 32 31 32 34 34 35 36 36 37 39 39 39 39 40 41 41 41 41 42 42 42 42 42 43 42 41 42 42 42 43 42
21 21 21 22 23 25 26 27 29 30 30 30 31 31 31 31 32 33 34 34 35 35 36 37 38 38 39 39 40 40 41 41 42 43 42 42 42 42 42 42 42 42 43 42
19 20 21 22 23 25 26 26 26 28 29 31 30 30 30 31 32 33 33 33 33 34 35 36 36 36 37 37 38 39 41 41 42 43 43 43 43 43 42 42 42 42 42 42
19 19 19 20 22 24 24 24 23 25 26 28 29 30 29 31 32 32 32 31 32 33 34 35 35 36 36 37 37 38 39 40 40 42 43 44 43 43 43 43 43 43 42 42
18 19 20 19 20 23 22 20 21 23 24 26 27 27 27 28 29 30 30 30 31 32 33 34 34 35 35 36 37 37 38 38 39 39 41 42 43 43 43 44 43 43 42 40
17 17 19 19 20 21 20 19 19 21 22 23 24 24 26 26 27 28 28 28 28 29 30 31 32 32 33 35 36 37 37 37 37 37 39 40 41 41 42 43 42 42 42 41
16 17 18 18 19 19 18 18 19 22 22 22 22 23 23 24 25 25 26 26 26 27 27 28 30 30 30 31 32 34 35 35 36 36 37 38 39 39 39 40 40 40 40 40
14 15 16 17 17 17 18 18 19 21 21 21 22 22 23 23 25 24 24 24 25 25 26 27 28 28 29 29 31 32 33 33 34 35 36 36 37 37 38 38 38 39 39 40
14 14 15 17 17 18 17 16 17 19 20 20 21 21 21 23 23 24 24 23 23 24 26 27 27 27 27 28 29 29 30 30 31 32 33 34 35 36 36 37 37 37 38 38
14 14 14 15 17 17 16 16 17 18 19 19 20 20 21 21 22 23 24 24 24 24 25 26 27 27 27 27 27 28 29 29 29 30 30 31 33 35 36 36 36 36 36 37
14 14 14 15 15 15 15 16 17 18 18 19 19 19 20 20 21 21 23 24 24 24 25 26 27 27 27 27 27 28 28 29 29 29 30 30 31 32 34 35 36 36 36 36
14 14 14 14 15 16 16 16 17 17 18 19 19 20 20 20 20 20 21 22 23 23 24 24 25 27 27 28 28 28 28 28 28 29 29 29 30 31 32 33 33 34 34 35
14 14 14 14 14 15 16 16 17 17 18 19 19 20 21 21 21 21 21 22 23 23 24 25 25 26 27 29 29 29 29 29 29 29 29 29 29 29 30 30 31 32 33 33
14 14 15 15 14 15 15 16 17 18 18 19 20 20 20 20 20 20 21 22 23 24 24 25 25 26 27 28 28 29 30 30 30 29 28 28 28 28 29 29 30 30 30 31

GEFSCGP_500_meanwind_252.txt.gz
Wind_Speed
37 38 39 39 40 40 41 42 42 41 41 42 43 42 42 41 42 42 43 43 44 43 43 43 42 42 42 42 42 41 41 41 41 41 41 41 40 40 39 39 38 37 36 36
36 36 37 38 39 39 41 42 42 42 41 42 42 42 42 42 42 42 43 44 43 43 43 43 42 42 42 42 42 42 42 42 42 41 42 42 41 41 40 40 39 38 38 37
34 34 35 36 38 39 40 40 41 42 40 41 42 43 43 42 42 42 43 44 44 44 44 44 43 43 42 42 42 42 42 43 42 42 42 43 43 42 42 41 40 40 39 39
32 32 33 35 35 37 38 38 39 39 40 40 42 43 43 43 43 43 43 43 44 44 44 45 44 44 43 43 43 42 42 43 43 43 43 43 43 43 43 43 42 41 41 41
29 29 30 31 32 33 35 36 37 37 39 40 40 42 43 43 43 43 43 44 44 44 44 44 44 44 44 44 44 43 43 44 43 43 43 43 43 44 44 44 43 43 42 42
28 28 28 28 29 30 33 34 36 37 38 40 39 40 42 42 42 42 43 43 44 44 44 44 44 44 44 44 44 44 44 44 44 44 43 43 43 44 45 44 44 43 44 44
26 26 26 26 27 28 31 33 34 36 37 39 38 39 40 39 40 40 41 43 43 43 43 43 44 44 44 44 45 45 45 45 45 44 44 44 44 45 45 46 45 45 44 44
24 24 24 24 24 26 27 31 33 34 36 36 37 38 38 38 38 39 40 41 42 43 43 43 44 44 45 44 45 45 46 46 46 45 45 45 45 45 45 46 46 45 45 44
22 22 22 22 23 24 25 28 30 32 34 35 35 37 37 37 38 39 39 40 41 42 42 43 44 45 45 45 45 46 46 46 47 46 46 46 46 45 45 45 45 45 45 45
20 21 21 21 22 23 24 25 27 31 32 34 34 35 35 35 37 38 38 39 40 41 42 43 44 44 45 45 45 46 47 47 47 47 46 46 46 45 45 45 45 45 45 45
19 20 20 20 21 22 22 24 26 29 31 32 33 34 34 35 36 36 37 38 39 40 41 41 42 43 44 44 45 46 46 46 46 47 47 46 46 45 45 45 45 45 45 45
18 19 19 19 20 20 22 22 24 26 28 29 30 32 31 34 35 35 36 36 37 37 38 39 40 41 42 42 43 44 44 45 45 46 46 46 45 45 44 45 46 45 45 45
16 17 19 19 19 20 21 22 23 26 28 29 29 29 28 31 33 34 34 35 35 35 36 38 39 40 40 41 41 42 42 43 44 45 46 46 46 45 45 44 45 46 46 45
15 16 17 18 19 20 21 22 23 24 26 28 29 28 27 29 31 32 33 34 35 35 36 36 37 38 38 39 40 40 41 41 42 43 45 45 46 47 46 45 45 45 45 45
16 16 17 18 19 19 20 21 22 23 24 26 26 26 25 25 26 27 29 31 33 34 35 37 37 37 37 39 39 39 40 41 41 42 43 44 45 46 46 46 46 46 46 46
16 17 17 18 18 18 19 20 20 21 23 24 25 26 26 25 24 25 25 27 29 31 33 34 36 37 37 37 38 38 39 40 40 41 41 42 43 44 45 46 46 46 46 46
15 16 16 17 18 18 19 18 19 20 21 23 23 23 25 26 26 26 25 25 26 27 30 31 33 35 37 37 37 38 38 39 40 40 41 42 43 43 43 44 45 45 45 45
14 14 14 15 17 18 17 17 18 18 19 21 22 22 23 25 25 25 26 26 26 27 28 29 30 32 34 36 36 37 38 39 39 39 40 41 42 42 42 43 43 44 45 45
14 14 14 14 16 16 16 16 16 17 17 19 20 21 21 22 24 24 25 26 27 27 28 29 29 30 32 33 34 36 38 39 39 38 39 39 40 41 41 42 42 43 44 44
13 13 14 14 15 15 14 15 17 18 17 17 18 19 20 20 22 22 24 24 25 26 27 28 28 29 30 31 31 33 35 36 37 37 37 37 38 39 40 40 41 42 42 42
12 13 13 14 14 13 13 14 16 18 18 18 18 19 20 20 21 21 23 23 23 24 25 26 27 28 29 29 29 29 31 33 33 34 35 36 35 36 36 37 38 39 41 41
12 12 13 14 15 14 13 13 14 16 18 19 19 19 19 20 21 21 22 22 22 23 24 24 25 26 27 27 27 27 28 30 31 31 33 33 33 34 34 35 36 37 38 40
12 12 13 14 15 15 14 14 15 16 17 18 19 19 19 19 20 20 21 21 22 22 23 24 24 25 25 26 27 27 27 28 29 30 30 31 33 33 34 34 34 35 36 37
13 13 14 14 14 14 14 14 14 15 16 16 18 19 19 19 19 19 20 21 21 22 23 23 24 24 24 25 26 27 27 27 28 28 29 30 31 32 33 33 34 34 34 36
14 14 14 14 14 14 14 14 14 15 16 16 17 18 19 19 19 19 19 20 21 21 22 23 24 24 24 25 26 27 27 27 28 28 28 29 29 29 31 32 33 33 33 35
13 13 13 13 13 13 13 13 14 15 16 16 17 17 18 19 19 19 19 19 20 21 21 22 23 23 24 25 25 25 26 26 27 27 28 28 29 29 29 30 31 32 32 33

GEFSCGP_500_meanwind_258.txt.gz
Wind_Speed
37 37 38 38 39 40 41 41 42 41 42 43 44 44 45 45 45 45 45 46 46 46 46 46 45 45 45 44 44 44 44 44 43 43 42 42 42 41 41 40 40 38 37 36
35 36 35 36 37 38 39 40 41 41 42 43 42 44 44 44 45 45 45 45 45 45 46 46 46 46 46 45 45 45 45 45 45 44 44 43 43 43 42 41 40 39 38 37
34 34 34 35 36 37 38 39 40 41 41 42 42 43 43 43 44 45 45 45 45 45 45 45 45 46 46 46 45 45 45 45 45 45 45 44 44 44 43 43 42 40 40 39
31 32 33 34 34 35 35 36 38 39 41 42 42 44 43 44 44 45 45 45 45 45 45 45 45 45 46 46 46 46 45 45 45 45 45 45 45 44 44 44 44 42 41 41
30 29 29 30 30 32 32 33 35 36 38 41 41 43 43 44 44 44 45 45 45 45 46 46 46 46 46 46 46 46 46 46 46 46 46 45 45 45 44 44 44 44 43 42
28 27 27 27 27 29 30 31 32 34 35 39 39 41 42 42 43 43 44 45 46 46 46 46 47 47 47 46 46 47 47 47 47 46 46 46 45 45 45 45 45 45 44 44
23 24 24 24 26 27 28 29 30 32 34 37 36 39 40 40 41 42 43 44 46 46 46 46 47 47 47 47 47 48 48 48 47 47 47 47 47 47 46 46 45 45 45 45
21 21 21 22 24 25 27 27 29 31 33 35 36 37 37 38 39 40 42 43 44 45 46 47 47 47 47 48 49 48 49 48 49 49 48 48 48 48 48 47 47 46 46 46
21 20 20 20 21 23 25 26 27 29 32 33 35 37 37 37 38 39 40 41 43 44 45 45 46 46 47 48 49 49 49 49 50 50 50 49 49 49 49 49 48 47 47 46
19 20 20 20 20 22 24 25 26 27 29 32 33 35 35 35 36 37 38 39 40 42 43 45 46 46 47 47 48 49 49 50 50 51 50 50 49 49 49 49 48 48 47 47
18 20 20 19 20 21 23 25 26 27 28 30 32 32 33 33 33 34 36 37 38 39 41 42 43 44 45 46 47 48 49 50 50 50 50 50 49 48 48 48 48 48 48 47
18 19 20 19 19 20 22 24 26 27 27 28 31 31 30 32 33 34 35 35 37 38 39 41 41 42 43 44 45 47 48 49 49 49 49 49 49 49 48 48 48 49 49 49
17 18 19 19 19 19 20 21 24 26 27 27 28 28 28 29 31 32 33 34 35 36 37 39 40 41 42 43 43 45 47 48 49 49 49 49 49 49 49 48 49 49 49 50
18 19 19 20 19 20 19 20 22 24 26 26 27 27 26 29 31 32 32 33 34 35 35 36 37 39 41 43 43 44 45 47 48 49 49 49 49 49 49 49 49 50 50 50
18 19 20 20 19 20 20 20 21 23 25 26 26 26 26 28 29 31 32 32 33 34 34 34 36 38 39 41 42 43 44 46 47 48 48 49 49 49 49 49 49 49 50 50
18 18 19 19 19 19 20 20 21 22 23 25 26 26 26 26 28 30 32 32 32 33 34 34 35 36 37 38 40 42 43 44 46 47 48 48 49 50 50 50 49 49 50 50
18 18 18 18 18 19 20 20 20 20 22 23 23 24 25 26 27 28 30 31 32 32 33 34 34 34 36 37 38 39 40 42 43 44 46 46 47 48 49 50 50 49 49 50
18 18 18 18 18 19 19 19 19 20 21 22 23 22 23 25 26 27 28 30 31 31 32 33 34 34 35 36 38 39 39 39 40 41 43 45 46 47 47 48 49 49 49 49
18 17 17 17 17 18 18 18 19 20 21 21 21 22 23 25 25 26 27 28 29 31 32 33 33 34 35 36 37 38 39 39 39 40 40 41 43 45 45 46 46 46 46 46
18 18 18 18 17 17 17 17 19 20 21 21 21 22 23 24 26 26 28 29 30 30 31 32 33 33 35 36 36 36 37 37 38 38 38 39 40 41 43 44 44 45 45 45
18 18 18 18 18 17 17 17 18 19 20 20 21 22 23 23 25 26 27 29 30 30 31 32 32 32 33 34 35 36 36 36 37 37 37 37 38 39 40 41 42 42 43 43
18 18 18 18 18 19 18 18 18 19 20 20 21 21 23 24 24 25 26 27 28 29 29 30 30 31 31 32 34 35 35 35 36 36 36 36 36 36 38 38 39 40 41 41
18 18 18 19 20 20 19 19 19 20 20 20 21 21 22 23 24 24 24 25 26 26 27 28 28 29 29 29 29 30 32 32 33 34 34 33 34 34 34 35 36 37 38 39
19 18 18 19 20 20 20 20 19 20 20 20 20 21 22 22 23 23 23 23 23 24 25 25 26 26 26 26 26 26 27 28 29 30 31 31 31 31 31 31 33 34 36 36
20 19 19 19 19 19 19 19 19 19 19 19 19 20 21 21 21 22 23 23 23 23 23 24 25 26 26 26 26 26 26 26 27 28 29 29 30 30 29 29 30 32 33 34
20 20 19 19 18 18 18 18 18 18 19 19 19 19 20 21 21 21 22 22 22 22 23 24 24 25 25 26 25 26 26 26 27 28 28 28 28 29 29 28 28 29 31 32

GEFSCGP_500_meanwind_264.txt.gz
Wind_Speed
28 28 29 31 32 34 35 36 37 37 38 39 41 42 42 44 44 45 46 47 47 46 46 47 47 47 47 47 47 46 46 46 46 46 45 45 44 43 43 42 41 41 40 39
26 27 28 29 31 33 34 34 34 36 37 39 41 42 42 43 43 44 45 46 47 47 47 47 48 48 48 49 48 48 47 47 47 47 46 46 46 45 44 44 43 42 42 41
24 25 26 28 29 31 32 33 32 33 34 37 39 40 41 41 42 43 44 45 46 47 47 47 48 48 49 49 49 49 48 48 48 47 47 47 47 46 46 45 45 44 43 43
22 21 23 25 27 28 29 30 30 31 32 34 37 39 40 40 40 42 43 44 45 46 46 47 48 49 49 49 49 49 49 49 49 49 48 48 47 46 46 46 46 45 45 44
21 19 20 22 23 24 25 26 27 28 30 33 34 36 38 39 40 40 42 43 44 45 45 46 47 47 48 49 49 50 49 49 49 49 49 49 48 48 47 47 47 47 46 45
18 17 18 20 20 21 22 24 25 25 27 30 32 34 35 37 38 39 41 42 43 43 44 45 46 46 47 48 49 49 49 49 49 49 49 49 49 49 48 48 48 48 47 46
16 16 17 18 20 20 21 21 23 24 25 26 28 31 34 35 36 37 39 40 41 42 42 43 45 46 46 47 48 48 48 48 49 49 49 49 49 49 49 49 48 48 48 47
16 16 16 17 18 19 20 20 22 24 25 25 26 28 30 32 34 36 37 38 40 40 41 42 43 45 46 47 47 47 47 48 48 49 49 49 49 49 49 49 49 49 48 48
17 16 16 16 17 18 19 20 20 22 25 26 26 28 29 30 32 35 36 37 39 40 41 42 43 44 45 46 47 47 47 47 48 48 50 50 50 50 49 50 50 50 49 48
17 17 16 15 16 18 18 20 20 21 22 24 26 28 29 29 31 33 35 37 38 39 40 42 43 44 45 46 46 46 47 48 48 48 49 50 51 51 50 50 50 50 50 49
18 17 16 15 15 15 16 19 21 21 22 23 23 25 27 27 28 30 33 36 38 39 40 41 41 43 44 45 46 46 47 48 48 48 48 50 51 51 51 51 51 51 51 50
17 16 15 15 15 15 17 18 18 20 21 23 25 25 26 27 27 29 31 33 36 37 39 40 41 42 43 45 46 46 46 47 48 48 48 49 49 50 51 51 51 51 51 51
16 16 15 15 15 16 17 19 19 20 21 21 22 23 25 26 27 28 29 31 33 35 36 38 40 41 42 44 46 47 47 46 46 47 48 48 49 49 50 50 51 51 51 51
15 15 15 15 15 16 16 19 21 21 22 22 21 20 21 24 25 27 28 29 30 32 34 36 38 39 41 43 44 46 46 46 46 46 46 47 47 48 49 50 51 51 51 51
16 15 15 15 15 15 16 17 19 21 22 22 21 21 21 23 25 25 26 28 29 30 31 33 35 37 38 40 41 43 44 44 45 45 46 46 47 48 48 48 49 50 51 51
17 16 15 15 15 15 16 16 16 18 19 20 21 22 22 23 25 27 27 27 28 30 31 32 33 35 37 39 40 41 42 43 44 45 45 46 47 48 48 48 48 50 50 50
16 16 16 15 15 16 16 16 16 16 17 18 19 20 22 23 25 27 29 29 29 30 31 32 33 34 36 38 39 40 41 41 42 43 44 45 46 47 48 48 48 49 50 51
17 16 16 16 15 15 15 15 15 16 17 18 20 20 22 23 24 26 28 29 29 30 31 32 33 34 36 37 38 40 41 41 42 43 43 44 45 46 47 47 48 48 49 50
17 17 17 17 17 16 15 15 15 16 17 19 20 20 21 22 22 24 26 27 28 29 30 32 33 35 36 37 38 38 40 41 42 42 43 44 44 45 45 46 47 47 48 49
19 18 18 18 18 17 16 16 16 16 17 18 19 20 21 22 22 22 24 25 27 28 29 31 32 33 35 36 37 37 39 40 41 41 42 43 44 44 44 44 45 45 46 47
19 19 18 18 18 18 17 17 17 17 18 18 19 20 20 21 22 23 24 25 25 27 28 29 30 31 32 33 34 35 36 37 38 39 40 40 41 41 41 42 43 43 44 44
20 20 20 19 19 19 18 19 18 18 19 19 20 20 20 21 22 22 24 25 26 26 27 28 29 29 29 30 31 32 33 35 36 37 37 38 38 38 39 39 40 41 42 42
20 20 20 20 19 19 20 20 20 20 20 20 20 21 21 21 21 21 22 24 25 26 27 27 28 28 28 29 30 30 31 33 34 35 36 36 36 36 37 38 39 39 40 41
21 21 21 20 20 20 20 20 20 20 20 21 21 21 21 21 21 22 22 22 24 25 26 26 27 27 28 28 28 29 30 31 32 33 34 34 35 35 35 36 36 37 37 38
22 21 21 20 19 19 19 20 20 20 20 20 21 21 21 21 21 21 21 21 22 23 24 24 25 25 26 26 27 27 28 29 29 30 31 32 33 33 33 33 33 34 34 35
22 21 20 20 19 19 18 18 19 20 20 20 19 19 19 20 20 20 20 20 20 21 21 22 22 22 24 24 25 25 26 27 28 28 29 30 31 32 32 32 32 32 32 33

GEFSCGP_500_meanwind_270.txt.gz
Wind_Speed
26 26 27 29 30 31 31 32 34 35 36 38 39 39 40 41 43 44 45 46 47 46 47 47 47 46 46 46 46 46 46 46 46 46 46 45 45 44 44 43 41 39 39 38
25 25 25 27 28 30 31 32 33 34 35 38 39 39 39 39 42 43 43 45 46 47 47 48 48 47 46 46 46 46 46 46 47 47 46 46 46 46 45 44 44 43 42 41
24 23 23 24 26 28 30 31 32 33 34 36 38 39 39 40 41 43 42 44 45 46 47 48 48 48 47 48 47 48 47 47 47 47 47 46 46 46 46 45 45 45 44 43
22 21 21 22 23 24 26 28 29 31 32 34 35 37 37 39 40 41 42 43 44 45 46 47 47 48 48 48 48 48 48 47 47 47 47 46 46 46 46 45 46 46 45 44
20 20 20 20 20 22 23 24 26 28 31 33 33 34 34 36 38 40 41 42 42 43 45 46 47 48 48 48 49 49 49 48 47 47 47 47 46 46 46 46 46 46 46 45
20 19 18 18 18 19 21 21 22 25 28 29 29 32 33 34 35 36 39 40 41 42 43 45 46 47 48 48 49 49 49 49 48 48 48 48 47 46 46 47 47 47 47 47
20 19 17 17 17 18 19 19 20 22 24 26 26 28 31 30 32 34 37 38 39 41 42 43 44 46 47 47 48 49 49 49 48 48 48 48 48 47 47 47 47 48 47 47
21 19 18 17 17 18 18 18 19 21 22 23 23 25 26 27 29 32 35 36 37 38 40 41 43 44 46 47 48 49 50 49 49 49 48 48 48 48 48 48 47 48 48 47
22 20 20 19 18 18 17 17 18 19 20 21 22 23 26 27 28 29 32 34 35 37 39 40 42 43 44 46 48 49 49 49 50 49 49 49 49 50 50 49 48 48 49 49
23 21 19 19 18 19 19 18 18 18 19 20 21 22 23 25 26 27 30 33 34 36 38 39 41 42 44 45 46 47 48 49 49 49 49 49 50 50 51 50 50 50 51 50
22 22 19 19 18 19 19 19 19 20 20 21 22 22 22 23 25 27 28 31 33 35 37 39 41 42 43 44 45 46 47 48 48 49 50 50 50 50 50 51 51 51 52 52
22 21 19 18 17 18 19 19 20 20 20 21 22 24 24 24 25 27 29 30 31 34 35 37 39 41 42 44 45 46 46 47 48 49 49 50 51 51 50 50 51 51 51 51
22 21 20 18 17 17 18 19 19 20 21 21 22 23 25 26 27 27 29 30 31 33 35 37 38 39 40 42 43 44 45 45 47 48 50 50 50 51 51 51 51 51 51 51
22 22 20 18 17 17 17 18 18 19 21 22 22 23 24 26 27 28 29 30 31 33 34 36 38 39 39 40 42 42 44 45 46 47 48 49 50 50 50 50 49 49 50 50
22 21 20 18 17 17 18 18 19 20 21 22 22 22 23 24 25 27 28 30 32 33 34 35 37 38 40 41 41 42 43 44 45 47 47 47 48 49 48 48 48 48 48 48
22 21 19 19 18 18 18 19 20 20 21 22 23 23 23 23 24 26 27 28 30 32 34 35 36 38 40 41 42 43 43 44 45 46 46 47 47 48 48 48 48 48 47 47
22 21 20 19 18 19 19 19 20 21 22 23 23 23 24 25 25 25 26 27 29 29 31 34 36 38 39 41 42 43 44 45 46 46 46 47 47 47 48 48 48 49 49 49
22 21 20 19 19 20 20 20 20 21 22 22 23 24 25 25 26 27 27 27 28 28 29 31 33 35 37 38 40 42 43 44 45 46 47 48 48 48 48 48 48 48 48 48
23 21 21 20 20 20 20 21 21 22 22 22 23 23 24 25 26 27 27 28 29 29 29 30 31 32 34 36 37 38 39 40 41 43 45 46 48 48 48 48 48 48 48 48
23 22 22 22 21 21 21 22 22 22 23 23 24 24 24 24 26 26 27 27 28 28 28 29 29 31 32 34 35 36 38 38 39 40 42 44 45 46 46 46 47 47 47 47
23 23 22 22 23 22 22 22 22 22 22 22 23 24 24 24 24 24 25 26 27 27 28 28 28 30 31 33 34 34 35 36 37 38 39 40 41 42 43 44 45 46 46 47
24 24 24 24 24 23 23 23 22 22 23 23 23 24 24 24 24 23 23 24 25 25 26 27 27 28 30 32 33 33 34 35 36 36 37 37 37 39 40 41 42 43 43 44
25 24 24 24 24 24 24 23 23 23 23 23 23 23 23 23 23 23 23 23 24 25 25 25 26 27 28 29 30 31 32 33 34 35 35 35 35 36 37 38 39 39 40 41
25 25 25 24 24 24 24 23 23 23 22 22 22 22 22 22 23 23 22 23 23 24 25 25 26 26 26 27 28 29 30 30 31 31 33 33 34 35 35 35 36 37 38 39
26 25 25 24 24 24 23 23 23 22 22 22 22 21 21 21 22 22 23 23 24 25 26 26 25 25 25 25 26 27 27 27 27 28 29 30 31 32 32 33 34 35 36 37
25 25 25 24 23 23 23 23 23 23 22 21 21 21 22 22 21 21 22 22 23 23 23 24 24 24 23 23 24 24 25 25 25 25 26 26 27 29 30 31 32 33 34 35